OBJECT C

Satellite information

Favourite Embed

Satellite Type and Status

UNKNOWNIN ORBIT

Key statistics

Satellite OBJECT C at a glance.

Uptime

206

Days in orbit

Revolutions

≈ 15.2

Per day

Orbit

SSO

Sun Synchronous Orbit

Inclination

97.5

Latest

Satellite identification and parameters

Extended collection of information and parameters for OBJECT C.

Object identification

Identified? True

Debris? False

Object name: OBJECT C

International designator: 2025-108C

Object number (NORAD): 64089

Object ID (CCSDS): 64089

Country: PEOPLES REPUBLIC OF CHINA (PRC)

Current information (Y/N): Y

RCS size: MEDIUM

Orbital parameters

Period: 95.037 minutes

Inclination: 97.4901 deg

SMA: 6898.514 km

Apoapsis: 531.75 km

Periapsis: 509.009 km

RAAN: 58.904 deg

Eccentricy: 0.0016483

Argument of periapsis: 295.0154 deg

Mean anomaly: 64.9367 deg

Mean motion: 15.15198054 rev/day

Mean motion (dot): 0.00011193 rev/day2

B* drag term: 0.00059728047 1/REarth

Two-line elements (TLE)

Creation date: Dec. 12, 2025, 10:14 a.m.

Reference frame: TEME

Reference center: EARTH

Epoch: Dec. 12, 2025, 6:40 a.m. UTC

TLE line 0: 0 OBJECT C

TLE line 1: 1 64089U 25108C 25346.27824921 .00011193 00000-0 59728-3 0 9997

TLE line 2: 2 64089 97.4901 58.9040 0016483 295.0154 64.9367 15.15198054 30998

Live tracking on map

Real-time ground track for satellite OBJECT C.

In-orbit conjunctions

There are no conjunctions computed for OBJECT C, at the moment. Check back to stay up to date, as we update our databases every day.

Go to all conjunctions

Associated space launch

Carried 6 satellites to Sun-synchronous orbit, including commercial Earth observation satellites Taijing-3-04 & Taijing-4-02A: * Taijing-3-04 * Taijing-4-02A * Xingrui-11 * Xiguang-1 02 * Xingjiyuan-1 * Cube-108 001

OBJECT C was lifted into orbit during the mission ‘Kinetica 1 | 6 satellites’, on board a Kinetica 1 space rocket.

The launch took place on May 21, 2025, 4:05 a.m. from Launch Area 130.

For more information about the launch, click the button.

Launch to space Kinetica 1 | 6 satellites
Kinetica 1 | 6 satellites

Agency: N/A

Status: Launch Successful

Launch date: May 21, 2025, 4:05 a.m. UTC

Rocket: Kinetica 1

Launch pad: Launch Area 130

Location: Jiuquan Satellite Launch Center, People's Republic of China

...

Latest news about this satellite

News about space launch
Launch Roundup: SpaceX to start new Starlink shell; China, Russia to launch unknown payloads

This week, SpaceX will begin building a new shell for its Starlink constellation, launching from… The post Launch Roundup: SpaceX to start new Starlink shell; China, Russia to launch unknown payloads appeared first on NASASpaceFlight.com.


Newsletter sign-up

Weekly statistics, charts and insights to help you stay on top of the space industry.